Regional Weather Roundup
Issued by NWS

Home | Current Version | Previous Version | Text Only | Print | Product List | Glossary Off
Versions: 1 2 3 4 5 6 7 8 9 10 11 12 13 14 15 16 17 18 19 20 21 22 23 24 25 26 27 28 29 30 31 32 33 34 35 36 37 38 39 40 41 42 43 44 45 46 47 48 49 50

000
ASUS45 KSLC 061010
RWRUT

UTAH REGIONAL WEATHER ROUNDUP
NATIONAL WEATHER SERVICE SALT LAKE CITY UT
400 AM MDT WED MAY 06 2015

UTZ001>011-023>025-061100-

NORTHERN UTAH

CITY           SKY/WX    TMP DP  RH WIND       PRES   REMARKS
HILL AFB       MOCLDY    54  49  84 SW8       29.83S
LOGAN          CLEAR     49  43  80 NE3       29.80S
OGDEN          MOCLDY    54  47  77 S6        29.81S
PROVO AIRPORT  CLOUDY    52  48  87 SE5       29.85S
SALT LAKE CITY CLOUDY    54  48  80 E7        29.82R
VERNAL         LGT RAIN  51  48  89 CALM      29.80S
WENDOVER       MOCLDY    52  45  76 W6        29.80S
HEBER CITY     DRIZZLE   46  45  93 CALM      29.85S
WEST JORDAN    MOCLDY    52  48  87 S5        29.84R

$$

UTZ012>022-026-027-061100-

SOUTHERN/CENTRAL UTAH

CITY           SKY/WX    TMP DP  RH WIND       PRES   REMARKS
BLANDING       CLOUDY    49  47  95 SW3       29.95S
BRYCE CANYON   MOCLDY    38  35  89 W3        29.96F
CEDAR CITY     CLOUDY    49  41  74 SW5       29.89F
DELTA          CLOUDY    49  47  93 S13       29.86S
HANKSVILLE     CLOUDY    54  50  87 CALM      29.82F
MILFORD        CLOUDY    51  45  79 SW9       29.86F
MOAB/CYNLANDS  CLOUDY    54  53  97 N3        29.78F
PRICE          MOCLDY    47  40  76 N8        29.82F
ST GEORGE      CLOUDY    57  48  72 S3        29.87S
KANAB          MOCLDY    46  46 100 CALM      29.95S

$$

REGIONAL REPORTS     COLORADO/ARIZONA

CITY           SKY/WX    TMP DP  RH WIND       PRES   REMARKS
CRAIG, CO      CLOUDY    49  46  90 W8        29.80S
GRAND JUNCTION LGT RAIN  51  50  96 N5        29.79F FOG
RIFLE          LGT RAIN  48  45  89 CALM      29.82R FOG
MONTROSE       CLOUDY    50  47  89 E3        29.84F
CORTEZ         CLOUDY    49  46  90 S9        29.89F
PAGE, AZ       PTCLDY    57  47  69 CALM      29.87F
GRAND CANYON   CLOUDY    43  40  89 SW6       30.00S
KINGMAN        PTCLDY    59  37  44 S8        29.85F
FLAGSTAFF      MOCLDY    37  36  96 CALM      30.02S

$$

REGIONAL REPORTS    NEVADA/IDAHO/WYOMING

CITY           SKY/WX    TMP DP  RH WIND       PRES   REMARKS
LAS VEGAS, NV  MOCLDY    70  37  29 S6        29.72S
ELY            MOCLDY    45  38  76 S13       29.89S
ELKO           CLEAR     39  28  64 CALM      29.82S
POCATELLO, ID  CLEAR     49  22  34 SW20      29.82S
BURLEY         MOCLDY    46  24  42 SW12      29.81F
EVANSTON, WY   CLOUDY    43  42  97 SW5       29.87S FOG
ROCK SPRINGS   CLOUDY    46  41  82 W14       29.80F
KEMMERER       CLOUDY    43  41  93 W10       29.85S

$$


USA.gov is the U.S. government's official web portal to all federal, state and local government web resources and services.